This is the latest recevied weather packets stored in our database for station/object BV3BA-13. If no packets are shown the sender has not sent any weather packets the latest 10 day(s).
| Time | Temp. | Humidity | Pressure | Rain* | Wind** | Luminosity | Snow |
|---|---|---|---|---|---|---|---|
| 1777838823 | 22.22° C | 74% | 1011.1 hPa | 0 mm | - | - | - |
| 1777838223 | 22.22° C | 75% | 1010.9 hPa | 0 mm | - | - | - |
| 1777837623 | 22.22° C | 73% | 1010.7 hPa | 0 mm | - | - | - |
| 1777837023 | 22.22° C | 72% | 1010.7 hPa | 0 mm | - | - | - |
| 1777836423 | 22.22° C | 72% | 1010.5 hPa | 0 mm | - | - | - |
| 1777835823 | 22.22° C | 77% | 1010.7 hPa | 0 mm | - | - | - |
| 1777835224 | 22.22° C | 78% | 1010.6 hPa | 0 mm | - | - | - |
| 1777834624 | 22.22° C | 79% | 1010.7 hPa | 0 mm | - | - | - |
| 1777834024 | 22.22° C | 79% | 1010.6 hPa | 0 mm | - | - | - |
| 1777833423 | 22.22° C | 78% | 1010.4 hPa | 0 mm | - | - | - |
| 1777832824 | 22.78° C | 77% | 1010.6 hPa | 0 mm | - | - | - |
| 1777832223 | 22.78° C | 78% | 1010.5 hPa | 0 mm | - | - | - |
| 1777831623 | 22.78° C | 77% | 1010.6 hPa | 0 mm | - | - | - |
| 1777831024 | 22.78° C | 78% | 1010.5 hPa | 0 mm | - | - | - |
| 1777830423 | 22.78° C | 78% | 1010.4 hPa | 0 mm | - | - | - |
| 1777829823 | 23.33° C | 78% | 1010.3 hPa | 0 mm | - | - | - |
| 1777829227 | 23.33° C | 76% | 1010.5 hPa | 0 mm | - | - | - |
| 1777828624 | 23.33° C | 76% | 1010.3 hPa | 0 mm | - | - | - |
| 1777828024 | 23.33° C | 77% | 1010.1 hPa | 0 mm | - | - | - |
| 1777827423 | 23.33° C | 80% | 1010 hPa | 0 mm | - | - | - |
| 1777826824 | 23.33° C | 81% | 1010 hPa | 0 mm | - | - | - |
| 1777826223 | 23.89° C | 83% | 1010.1 hPa | 0 mm | - | - | - |
| 1777825624 | 24.44° C | 83% | 1010.2 hPa | 0 mm | - | - | - |
| 1777825024 | 24.44° C | 84% | 1010.1 hPa | 0 mm | - | - | - |
| 1777824424 | 24.44° C | 85% | 1010.1 hPa | 0 mm | - | - | - |
* Rain latest hour (hover to see other rain measurements)
** Current wind speed in m/s (hover to see current wind gust speed)